TIME,DELAY(SENSOR),PRES,OXYGEN,RAWTEMP,T(OPTODE),TCPHASE,FLUOR,BETA(BETA700),BETA(BETA412),BETA(BETA440),CDOM,C(CSC),ED(ED411.90),ED(ED443.80),ED(ED489.40),ED(ED554.70),LU(LU412.20),LU(LU443.80),LU(LU489.40),LU(LU555.00),COMP,TILTX,TILTY,CHECK
1339279271,5803,863.0100097656250000,185.6669006347656200,475.8652954101562500,8.2763662338256840,38.3999710083007800,52,103,101,80,80,15210,2146951259,2147519424,2147291602,2147514633,2147090267,2146922166,2147713974,2147119360,2098,-2,8,41692
1339282867,5805,993.2399902343750000,230.4091033935547000,534.7543945312500000,6.4470729827880860,36.7683906555175800,53,103,100,79,82,15198,2146957540,2147522221,2147298413,2147526043,2147090112,2146912804,2147727716,2147112850,3121,-1,8,43226
1339286467,5807,1034.6199951171875000,244.7756042480468800,547.2155151367188000,6.0568118095397950,36.2487487792968750,52,103,100,80,82,15199,2146955913,2147519158,2147297984,2147532123,2147090752,2146917558,2147732571,2147113654,391,-1,8,20133
1339290067,5804,1038.3000488281250000,245.2528076171875000,546.5692138671875000,6.0770840644836430,36.2132911682128900,51,101,101,82,82,15196,2146956909,2147521581,2147298889,2147528859,2147095067,2146912576,2147730861,2147115309,239,-1,8,50692
1339293667,5806,1046.3599853515625000,245.5359039306640600,546.4907226562500000,6.0795440673828125,36.1978683471679700,52,102,100,79,82,15195,2146960274,2147519862,2147298532,2147531812,2147087040,2146921152,2147729782,2147116534,189,-1,8,1632
1339297267,5804,1034.6400146484375000,244.0895996093750000,546.3624877929688000,6.0835671424865720,36.2681503295898440,52,103,100,78,81,15190,2146955437,2147521910,2147300754,2147526528,2147090221,2146912923,2147730386,2147116379,366,-1,8,53020
1339300867,5805,1041.5400390625000000,243.5413055419922000,546.4375000000000000,6.0812129974365230,36.2968597412109400,51,105,101,79,82,15187,2146954267,2147517522,2147301732,2147529865,2147090962,2146915849,2147729499,2147119478,3538,-1,8,52949
1339304467,5807,1042.5999755859375000,244.3766937255859400,546.0330200195312000,6.0938968658447270,36.2476081848144500,52,101,100,79,82,15188,2146952987,2147522934,2147298742,2147533028,2147091318,2146911780,2147733120,2147114578,3564,-1,8,24554
1339308067,5804,1019.2500000000000000,240.6734008789062500,542.0349121093750000,6.2192077636718750,36.3631896972656250,52,102,101,79,83,15188,2146957257,2147521197,2147299291,2147527268,2147091538,2146915730,2147728649,2147110957,3562,-1,8,29845
1339311667,5808,1018.4199829101562000,237.0453033447265600,542.3095703125000000,6.2105979919433590,36.5543098449707000,52,104,102,81,82,15188,2146958692,2147518555,2147299364,2147530386,2147089481,2146916928,2147727670,2147118080,3196,-1,8,7596
1339315267,5809,1015.0399780273438000,238.7882995605468800,542.1762695312500000,6.2147769927978520,36.4621009826660160,52,104,101,79,82,15183,2146956635,2147522157,2147298916,2147527634,2147093266,2146914541,2147731931,2147119241,38,-1,8,35753
1339318867,5806,1013.7399902343750000,240.6555023193359400,543.2885131835938000,6.1799278259277340,36.3866004943847660,52,102,100,78,81,15186,2146953636,2147519963,2147295716,2147528256,2147091794,2146918582,2147728868,2147116443,51,-1,8,35996
1339322467,5801,1019.1099853515625000,241.7709045410156200,543.6503295898438000,6.1685910224914550,36.3359603881835940,52,103,101,78,81,15180,2146956288,2147520886,2147298925,2147528374,2147090130,2146921920,2147730505,2147117092,3426,-1,8,7265
1339326067,5807,1020.3400268554688000,241.8094024658203000,543.4301147460938000,6.1754908561706540,36.3302116394043000,53,102,101,79,83,15185,2146957120,2147523163,2147299062,2147531382,2147091328,2146915200,2147729536,2147115236,3375,-1,8,42721
1339329667,5805,1020.7299804687500000,238.5278930664062500,542.7839965820312000,6.1957359313964840,36.4863090515136700,53,102,100,79,82,15179,2146957686,2147517376,2147301860,2147528475,2147090212,2146915977,2147730084,2147116516,3500,-2,8,48889
1339333267,5807,1023.2500000000000000,238.8231964111328000,542.6945190429688000,6.1985402107238770,36.4698181152343750,53,102,100,79,82,15009,2146955410,2147521819,2147296685,2147529051,2147088091,2146916708,2147730093,2147116763,313,-1,8,7135
1339336867,5809,1022.3599853515625000,240.6972961425781200,543.0817871093750000,6.1864051818847660,36.3803291320800800,51,103,102,79,82,15008,2146959232,2147520841,2147297371,2147526838,2147093129,2146918436,2147725421,2147114029,468,-1,8,1254
1339340467,5803,1023.4699707031250000,240.9022064208984400,542.3090209960938000,6.2106189727783200,36.3559913635253900,51,102,100,80,83,15005,2146956918,2147519067,2147298075,2147528685,2147093952,2146911798,2147729124,2147114742,3312,-1,8,36247
1339344067,5805,1026.3599853515625000,240.4169006347656200,542.1168823242188000,6.2166371345520020,36.3775100708007800,52,102,100,79,82,15006,2146955483,2147520109,2147300946,2147529334,2147090550,2146913142,2147729353,2147114742,3089,-1,8,61357
1339347667,5804,1026.3699951171875000,239.0225982666015600,541.7841796875000000,6.2270598411560060,36.4432411193847660,53,107,101,79,82,14993,2146958153,2147519104,2147298907,2147528237,2147092434,2146922230,2147726454,2147115410,3110,-1,8,57983
1339351267,5807,1024.2900390625000000,240.0919036865234400,542.2808837890625000,6.2114958763122560,36.3972511291503900,53,103,100,79,82,14989,2146955867,2147517110,2147298898,2147528027,2147088877,2146911369,2147729837,2147115840,3362,-1,8,12172
1339354867,5807,1025.4200439453125000,240.7440032958984400,543.3529052734375000,6.1779098510742190,36.3832817077636700,53,102,101,79,81,14991,2146958299,2147517220,2147299794,2147531419,2147093001,2146913993,2147727049,2147117156,274,-1,8,16497
1339358467,5805,1017.6900024414062000,240.3437957763672000,544.0870971679688000,6.1549019813537600,36.4170799255371100,52,104,100,80,82,14986,2146957275,2147520009,2147297700,2147531218,2147088877,2146920420,2147727798,2147119762,3416,-1,8,38869
1339362067,5807,1017.7800292968750000,240.7698974609375000,545.3214111328125000,6.1162109375000000,36.4169616699218750,52,101,102,80,83,14989,2146955190,2147518573,2147298944,2147530550,2147088365,2146916891,2147728868,2147116955,15,-1,8,37770
1339365667,5808,1020.0499877929688000,241.3643035888672000,545.5767822265625000,6.1082038879394530,36.3916397094726560,52,104,101,79,81,14989,2146960182,2147521984,2147300324,2147531849,2147091885,2146914898,2147730724,2147115145,217,-1,8,24308
1339369267,5807,1019.4799804687500000,244.0471954345703000,545.9702758789062000,6.0958628654479980,36.2626419067382800,52,103,106,81,82,14988,2146959625,2147520905,2147298468,2147529545,2147088859,2146917101,2147726162,2147114048,2919,-1,8,24878
1339372867,5805,1022.4699707031250000,243.2673950195312500,545.2393798828125000,6.1187782287597660,36.2887496948242200,52,110,100,78,82,14989,2146952649,2147520292,2147298258,2147528228,2147089892,2146917970,2147730386,2147115986,62,-1,7,58955
1339376467,5805,1023.0100097656250000,242.6820983886718800,544.8980712890625000,6.1294817924499510,36.3121414184570300,52,102,100,79,82,14987,2146959497,2147517842,2147299721,2147527058,2147091053,2146916790,2147724580,2147116205,644,-1,8,18210
1339380067,5804,1024.7700195312500000,242.6950073242187500,544.4494018554688000,6.1435451507568360,36.3041191101074200,52,104,100,78,81,14984,2146957732,2147521078,2147299044,2147529901,2147089069,2146914971,2147726838,2147115766,2889,-1,8,19144
1339383667,5806,1026.7800292968750000,241.5032043457031200,543.8784179687500000,6.1614418029785160,36.3543281555175800,52,103,102,79,81,14987,2146956672,2147521682,2147300772,2147526729,2147086838,2146916772,2147728118,2147114441,272,-1,8,40005
1339387267,5806,1030.0699462890625000,241.7770996093750000,544.4738159179688000,6.1427798271179200,36.3504295349121100,52,102,100,79,82,14984,2146954633,2147517046,2147301586,2147524516,2147090724,2146918683,2147727533,2147114706,3414,-1,8,34431
1339390867,5805,1029.3100585937500000,240.0415039062500000,542.7786865234375000,6.1959037780761720,36.4086189270019500,52,102,100,78,81,14984,2146957430,2147516150,2147299190,2147528082,2147088018,2146916032,2147727680,2147116224,3393,-1,8,19534
1339394467,5804,1027.8299560546875000,240.1528015136718800,544.1718139648438000,6.1522479057312010,36.4283485412597660,53,102,100,79,83,14986,2146957403,2147519442,2147299666,2147530578,2147090624,2146912704,2147729910,2147114020,3592,-1,8,8286
1339398067,5804,1026.0400390625000000,242.4913024902343800,544.2968750000000000,6.1483268737792970,36.3116416931152340,53,105,100,79,82,14986,2146958464,2147516864,2147297298,2147528045,2147087268,2146915977,2147729115,2147113865,3262,-1,8,23970
1339401667,5805,1020.9299926757812000,243.4694061279297000,546.1163940429688000,6.0912837982177730,36.2945213317871100,53,103,101,79,82,14984,2146955913,2147517211,2147298633,2147529600,2147092635,2146916864,2147727122,2147115922,2820,-1,8,39886
1339405267,5806,1025.0000000000000000,243.3872985839843800,546.1616210937500000,6.0898652076721190,36.2994308471679700,53,103,100,79,81,14983,2146958107,2147516022,2147299300,2147530989,2147089636,2146915017,2147726793,2147115821,3402,-1,8,15801
1339408867,5804,1026.5400390625000000,243.0700988769531200,545.9692993164062000,6.0958957672119140,36.3124885559082000,52,102,100,79,81,14982,2146956050,2147515666,2147301156,2147528621,2147089307,2146915346,2147726144,2147116397,3515,-1,8,20888
1339412467,5808,1025.0600585937500000,244.3115997314453000,546.2183837890625000,6.0880851745605470,36.2541999816894500,53,102,100,80,82,14980,2146956982,2147519908,2147303305,2147529426,2147088704,2146915328,2147727259,2147116150,3514,-1,8,47969
1339416067,5806,1027.8900146484375000,244.0458984375000000,545.6763916015625000,6.1050801277160645,36.2576103210449200,53,103,100,79,82,14980,2146957412,2147516379,2147297389,2147527844,2147087798,2146918884,2147727405,2147117641,214,-1,8,587
1339419667,5805,1031.9000244140625000,243.8641052246093800,545.4650268554688000,6.1117100715637210,36.2627792358398440,52,102,101,78,81,14976,2146956708,2147523565,2147299958,2147530834,2147089618,2146915748,2147730203,2147117330,238,-1,8,56684
1339422356,5805,1032.5600585937500000,244.0489959716797000,545.3673095703125000,6.1147708892822270,36.2521209716796900,52,105,101,79,81,15167,2146960228,2147519314,2147297517,2147531401,2147087369,2146920731,2147729005,2147114331,3411,-1,8,14891
